Zurück zum Katalog

STARLINK-4326

AktivKommunikationSSO
NORAD 53081·PAYLOAD·🇺🇸 United States

Gestartet Jul 11, 2022 von Vandenberg Space Force Base

Loading…

Nächste Überflüge (nächste 24 Stunden)

TLE

AktuellSource: CelesTrak SupGP

Epoche: Sep 15, 2026, 02:47 UTC

1 53081C 22077AQ  26258.11645833 -.00057817  00000+0 -17964-2 0  2585
2 53081  97.2852  73.0376 0001562  88.7930 244.6056 15.33439627    18

Verfolge STARLINK-4326 in Echtzeit mit AllMySat

Download on the App Store